Location: New Town
(33.2710°N, 90.7534°W)
Time: 03:04:09
(UTC+00:00)

Vanguard 2 - Visible Passes

Search period start: 12 May 2021 00:00
Search period end: 22 May 2021 00:00
Orbit: 552 x 2938 km, 32.9° (Epoch: 11 May)

Date Brightness Start Highest point End Pass type
(mag) Time Alt. Az. Time Alt. Az. Time Alt. Az.
12 May 10.1 09:40:03 13° SSW 09:46:22 32° SE 09:57:01 10° E visible
13 May 9.8 09:56:50 13° SSW 10:03:38 43° SE 10:15:30 10° E visible
14 May 10.3 08:12:12 13° SE 08:13:32 14° SE 08:17:39 10° ESE visible
14 May 9.6 10:13:36 11° SW 10:21:03 54° SSE 10:33:48 10° E visible
15 May 9.8 08:28:57 20° SSE 08:30:35 21° SE 08:37:18 10° E visible
15 May 9.4 10:30:47 10° WSW 10:38:39 65° SSE 10:51:59 10° E visible
16 May 9.4 08:45:39 26° SSE 08:47:44 30° SE 08:56:05 10° E visible
17 May 9.0 09:02:21 30° S 09:05:02 41° SE 09:14:30 10° E visible
18 May 8.9 09:19:02 29° SW 09:22:29 53° SSE 09:32:43 10° E visible
19 May 10.0 07:34:18 16° ESE 07:34:18 16° ESE 07:37:11 10° E visible
19 May 8.7 09:35:42 23° SW 09:40:05 65° SSE 09:50:52 10° E visible
20 May 9.4 07:50:58 25° ESE 07:50:58 25° ESE 07:55:54 10° E visible
20 May 8.7 09:52:21 16° WSW 09:57:48 76° SSE 10:08:59 10° E visible
21 May 8.7 08:07:38 38° SE 08:07:38 38° SE 08:14:13 10° E visible
21 May 8.7 10:09:01 10° WSW 10:15:36 84° S 10:27:08 10° E visible
